Location: Seattle
(47.6064°N, 122.3308°W)
Time: 22:43:55
(UTC-08:00)

Vanguard 1 - All Passes

Search period start: 26 November 2020 00:00
Search period end: 06 December 2020 00:00
Orbit: 650 x 3833 km, 34.2° (Epoch: 26 November)

Date Brightness Start Highest point End Pass type
(mag) Time Alt. Az. Time Alt. Az. Time Alt. Az.
26 Nov - 06:09:32 10° SW 06:16:09 33° SSE 06:27:04 10° ESE visible
26 Nov - 08:27:40 10° WSW 08:36:52 43° S 08:52:50 10° ESE daylight
26 Nov - 10:47:49 10° W 10:59:15 33° SSW 11:16:24 10° SSE daylight
26 Nov - 13:13:16 10° WSW 13:21:57 15° SW 13:32:04 10° SSW daylight
27 Nov - 04:14:24 10° S 04:17:43 14° SE 04:21:51 10° ESE visible
27 Nov - 06:29:49 10° SW 06:36:40 36° SSE 06:48:17 10° ESE visible
27 Nov - 08:48:21 10° WSW 08:57:41 41° S 09:13:35 10° SE daylight
27 Nov - 11:09:06 10° WSW 11:20:06 28° SSW 11:35:53 10° SSE daylight
28 Nov - 04:33:38 10° S 04:37:56 19° SE 04:43:49 10° ESE visible
28 Nov - 06:50:14 10° SW 06:57:17 38° S 07:09:23 10° ESE visible
28 Nov - 09:09:08 10° WSW 09:18:32 37° SSW 09:34:07 10° SE daylight
28 Nov - 11:30:46 10° WSW 11:40:57 23° SSW 11:54:44 10° S daylight
29 Nov - 04:53:25 10° SSW 04:58:15 23° SSE 05:05:19 10° ESE visible
29 Nov - 07:10:44 10° WSW 07:17:58 38° S 07:30:23 10° ESE daylight
29 Nov - 09:30:03 10° WSW 09:39:23 33° SSW 09:54:21 10° SE daylight
29 Nov - 11:53:10 10° WSW 12:01:45 17° SW 12:12:37 10° S daylight
30 Nov - 05:13:29 10° SW 05:18:40 27° SSE 05:26:34 10° ESE visible
30 Nov - 07:31:21 10° WSW 07:38:42 37° S 07:51:15 10° ESE daylight
30 Nov - 09:51:09 10° WSW 10:00:16 28° SSW 10:14:11 10° SSE daylight
30 Nov - 12:17:24 10° SW 12:22:32 12° SW 12:28:20 10° SSW daylight
01 Dec - 03:19:45 10° SSE 03:20:28 10° SE 03:21:14 10° SE visible
01 Dec - 05:33:45 10° SW 05:39:10 30° SSE 05:47:42 10° ESE visible
01 Dec - 07:52:02 10° WSW 07:59:28 35° S 08:11:55 10° SE daylight
01 Dec - 10:12:33 10° WSW 10:21:07 23° SSW 10:33:30 10° SSE daylight
02 Dec - 03:37:54 10° S 03:40:44 14° SSE 03:44:11 10° ESE visible
02 Dec - 05:54:10 10° SW 05:59:45 31° S 06:08:43 10° ESE visible
02 Dec - 08:12:51 10° WSW 08:20:16 31° S 08:32:20 10° SE daylight
02 Dec - 10:34:28 10° WSW 10:41:59 18° SSW 10:52:02 10° S daylight
03 Dec - 03:57:31 10° SSW 04:01:06 18° SSE 04:05:45 10° ESE visible
03 Dec - 06:14:41 10° WSW 06:20:24 32° S 06:29:36 10° ESE visible
03 Dec - 08:33:49 10° WSW 08:41:05 27° SSW 08:52:26 10° SE daylight
03 Dec - 10:57:36 10° SW 11:02:50 13° SSW 11:09:06 10° S daylight
04 Dec - 04:17:32 10° SSW 04:21:33 22° SSE 04:26:59 10° ESE visible
04 Dec - 06:35:18 10° WSW 06:41:05 30° S 06:50:20 10° SE visible
04 Dec - 08:55:02 10° WSW 09:01:56 22° SSW 09:12:05 10° SSE daylight
05 Dec - 04:37:48 10° SW 04:42:03 24° SSE 04:48:01 10° ESE visible
05 Dec - 06:56:02 10° WSW 07:01:49 28° S 07:10:52 10° SE visible
05 Dec - 09:16:41 10° WSW 09:22:47 18° SSW 09:31:06 10° SSE daylight
